Location: Misciano
(43.5000°N, 11.9500°E)
Time: 15:39:41
(UTC+00:00)

Cosmos 2082 Rocket - Pass Details

Date: 13 August 2020
Orbit: 835 x 852 km, 71.0° (Epoch: 18 September)

Event Time Altitude Azimuth Distance (km) Brightness Sun altitude
Rises 20:32:51 0° 238° (WSW) 3,403 5.5 -21.1°
Reaches altitude 10° 20:35:39 10° 250° (WSW) 2,469 4.9 -21.4°
Maximum altitude 20:40:26 27° 307° (NW) 1,560 4.3 -22.0°
Drops below altitude 10° 20:45:14 10° 5° (N) 2,471 5.2 -22.6°
Sets 20:48:04 0° 18° (NNE) 3,406 5.8 -22.9°
